Weather History for St. Petersburg Airport, FL

Change the Weather History Date:

Wednesday, May 28, 2014

  Actual Average Record
Temperature  
Mean Temperature 82 °F -  
Max Temperature 91 °F 87 °F 95 °F (1953)
Min Temperature 73 °F 72 °F 65 °F (1976)
Cooling Degree Days 16    
Growing Degree Days 32 (Base 50)    
Moisture  
Dew Point 69 °F    
Average Humidity 71    
Maximum Humidity 93    
Minimum Humidity 40    
Precipitation  
Precipitation 0.83 in - - ()
Sea Level Pressure  
Sea Level Pressure 30.04 in    
Wind  
Wind Speed 7 mph (ESE)    
Max Wind Speed 20 mph    
Max Gust Speed 30 mph    
Visibility 9 miles    
Events Fog , Rain , Thunderstorm    
Averages and records for this station are not official NWS values.
T = Trace of Precipitation, MM = Missing Value Source: NWS Daily Summary

Daily Weather History Graph

Daily Weather History Graph

Search for Another Location

Airport:

Trip Planner

Search our weather history database for the weather conditions in past years. The results will help you decide how hot, cold, wet, or windy it might be!

Date:

Astronomy

May. 28, 2014 Rise Set
Actual Time 6:35 AM EDT 8:20 PM EDT
Civil Twilight 6:09 AM EDT 8:46 PM EDT
Nautical Twilight 5:38 AM EDT 9:18 PM EDT
Astronomical Twilight 5:05 AM EDT 9:51 PM EDT
Moon 6:35 AM EDT (5/28) 8:22 PM EDT (5/28)
Length of Visible Light 14h 37m
Length of Day
13h 44m
Waning Crescent, 0% of the Moon is Illuminated
May 28
Waning Crescent
May 28
New
Jun 5
First Quarter
Jun 13
Full
Jun 19
Last Quarter

Hourly Weather History & Observations

Time (EDT) Temp. Heat Index Dew Point Humidity Pressure Visibility Wind Dir Wind Speed Gust Speed Precip Events Conditions
12:53 AM 75.0 °F - 70.0 °F 84% 30.08 in 10.0 mi ESE 5.8 mph - N/A   Clear
1:53 AM 75.0 °F - 70.0 °F 84% 30.07 in 10.0 mi ESE 5.8 mph - N/A   Clear
2:53 AM 73.9 °F - 70.0 °F 87% 30.06 in 10.0 mi ESE 4.6 mph - N/A   Clear
3:53 AM 75.0 °F - 71.1 °F 87% 30.05 in 10.0 mi East 5.8 mph - N/A   Partly Cloudy
4:53 AM 75.0 °F - 71.1 °F 87% 30.04 in 9.0 mi East 5.8 mph - N/A   Clear
5:53 AM 73.9 °F - 71.1 °F 91% 30.04 in 10.0 mi ESE 5.8 mph - N/A   Clear
6:53 AM 73.9 °F - 71.1 °F 91% 30.06 in 9.0 mi ESE 5.8 mph - N/A   Clear
7:53 AM 75.9 °F - 72.0 °F 87% 30.07 in 10.0 mi SE 6.9 mph - N/A   Clear
8:53 AM 78.8 °F - 71.6 °F 78% 30.08 in 10.0 mi SSE 10.4 mph - N/A   Clear
9:53 AM 81.0 °F 84.4 °F 70.0 °F 69% 30.08 in 10.0 mi SE 9.2 mph - N/A   Clear
10:53 AM 82.9 °F 85.8 °F 68.0 °F 60% 30.08 in 10.0 mi SE 11.5 mph - N/A   Clear
11:53 AM 86.0 °F 87.6 °F 64.9 °F 49% 30.08 in 10.0 mi SE 12.7 mph - N/A   Clear
12:53 PM 88.0 °F 90.3 °F 66.0 °F 48% 30.07 in 10.0 mi SSE 11.5 mph - N/A   Partly Cloudy
1:53 PM 89.6 °F 92.2 °F 66.2 °F 46% 30.05 in 10.0 mi ESE 8.1 mph 17.3 mph N/A   Partly Cloudy
2:53 PM 90.0 °F 90.6 °F 63.0 °F 40% 30.04 in 10.0 mi SE 8.1 mph - N/A   Partly Cloudy
3:53 PM 89.1 °F 91.0 °F 64.9 °F 45% 30.01 in 10.0 mi NE 5.8 mph - N/A   Scattered Clouds
4:53 PM 89.1 °F 91.0 °F 64.9 °F 45% 30.00 in 10.0 mi NNE 6.9 mph - N/A   Scattered Clouds
5:53 PM 87.8 °F 90.4 °F 66.2 °F 49% 29.98 in 10.0 mi Calm Calm - N/A   Clear
6:53 PM 87.8 °F 90.4 °F 66.2 °F 49% 29.99 in 10.0 mi SW 8.1 mph - N/A   Clear
7:02 PM 86.0 °F 88.8 °F 66.9 °F 53% 29.98 in 10.0 mi SW 6.9 mph - N/A Thunderstorm Clear
7:26 PM 84.0 °F 87.0 °F 68.0 °F 58% 30.00 in 10.0 mi West 5.8 mph - N/A Thunderstorm Thunderstorm
7:41 PM 82.9 °F 86.5 °F 69.1 °F 63% 30.01 in 10.0 mi NW 10.4 mph - N/A Thunderstorm Scattered Clouds
7:53 PM 82.9 °F 86.5 °F 69.1 °F 63% 30.02 in 10.0 mi NNW 6.9 mph - N/A Thunderstorm Thunderstorm
8:09 PM 82.0 °F 85.5 °F 69.1 °F 65% 30.01 in 10.0 mi NNW 6.9 mph - N/A   Scattered Clouds
8:34 PM 81.0 °F 84.1 °F 69.1 °F 67% 30.02 in 10.0 mi North 4.6 mph - N/A Thunderstorm Partly Cloudy
8:42 PM 81.0 °F 84.1 °F 69.1 °F 67% 30.03 in 10.0 mi Calm Calm - N/A Thunderstorm Thunderstorm
8:53 PM 81.0 °F 84.4 °F 70.0 °F 69% 30.03 in 10.0 mi East 8.1 mph - N/A Thunderstorm Thunderstorm
9:06 PM 75.0 °F - 70.0 °F 84% 30.04 in 1.8 mi SE 19.6 mph 29.9 mph 0.21 in Rain , Thunderstorm Heavy Thunderstorms and Rain
9:14 PM 73.0 °F - 69.1 °F 87% 30.03 in 0.5 mi North - - 0.75 in Fog , Rain , Thunderstorm Heavy Thunderstorms and Rain
9:20 PM 73.9 °F - 69.1 °F 85% 30.03 in 1.0 mi Variable 3.5 mph - 0.83 in Rain , Thunderstorm Heavy Thunderstorms and Rain
9:25 PM 73.0 °F - 69.1 °F 87% 30.03 in 2.5 mi Variable 4.6 mph - 0.83 in Rain Light Rain
9:27 PM 73.4 °F - 69.8 °F 88% 30.03 in 4.0 mi Calm Calm - N/A Rain Light Rain
9:53 PM 73.9 °F - 72.0 °F 93% 30.03 in 10.0 mi SE 3.5 mph - 0.83 in   Clear
10:53 PM 73.9 °F - 71.1 °F 91% 30.04 in 10.0 mi Calm Calm - N/A   Clear
11:53 PM 75.0 °F - 71.1 °F 87% 30.03 in 10.0 mi East 4.6 mph - N/A   Partly Cloudy